Location: Munkebjergskolens Observatorium
(55.3864°N, 10.3987°E)
Time: 22:07:26
(UTC+01:00)

DELTA 1 DEB - Pass Details

Date: 07 December 2023
Orbit: 783 x 826 km, 98.9° (Epoch: 04 March)

Event Time Altitude Azimuth Distance (km) Brightness Sun altitude
Rises 17:51:31 0° 166° (SSE) 3,295 ? -15.9°
Reaches altitude 10° 17:53:49 10° 168° (SSE) 2,375 ? -16.3°
Maximum altitude 17:59:05 77° 254° (WSW) 836 ? -17.0°
Drops below altitude 10° 18:04:27 10° 341° (NNW) 2,421 ? -17.7°
Sets 18:06:50 0° 343° (NNW) 3,364 ? -18.0°
